www.pogodaiklimat.ru

Погода и климат >> Архив погоды >> Филиппины >> Инфанта


ПОГОДА в Инфанте

  • Прогноз погоды в Инфанте
  • Монитор погоды в Инфанте

АРХИВ ПОГОДЫ в Инфанте

Время (UTC), дата Ветер
(напр.,м/с)
 
Видим.   Явления Облачность Т
(С)
Тd
(С)
f
(%)
Тe
(С)
Тes
(С)
Комфортность P
(гПа)
Po
(гПа)
Тmin
(С)
Tmax
(С)
R
(мм)
R24
(мм)
S
(см)
21 10.06 штиль 0 18 км 6/1 540 м
[Cu med, cong Cs]
+26.2 +24.9 93 +37 +37 очень
душно
1006.8 1006.0
00 11.06 штиль 0 20 км 8/1 540 м
[Cu med, cong Cs]
+30.7 +27.2 82 +49 +56 опасность
перегрева
1007.8 1007.0 +26.0 29
03 11.06 Ю 3 18 км 8/3 540 м
[Cu med, cong Ac trans Ci fib]
+33.5 +28.5 75 +55 +63 опасность
перегрева
1008.1 1007.3
06 11.06 Ю 2 18 км 8/3 540 м
[Cu med, cong Ci fib]
+34.0 +30.3 81 +62 +72 опасность
перегрева
1006.3 1005.5
09 11.06 Ю 2 18 км 6/3 540 м
[Cu med, cong Ac trans Ci fib]
+34.5 +28.9 73 +58 +59 опасность
перегрева
1005.4 1004.6
12 11.06 ЮЗ 1 20 км 4/1 540 м
[Cu med, cong Ac trans Ci fib]
+30.4 +26.7 81 +47 +47 опасность
перегрева
1008.8 1008.0 +34.9
15 11.06 штиль 0 20 км 4/1 540 м
[Cu med, cong Ci fib]
+28.4 +25.2 83 +41 +41 опасность
перегрева
1009.0
18 11.06 ЮЗ 2 20 км 5/1 540 м
[Cu med, cong Ci fib]
+28.2 +26.0 88 +42 +42 опасность
перегрева
1007.9 1007.1
21 11.06 штиль 0 18 км 6/1 540 м
[Cu med, cong Cs]
+27.9 +26.2 90 +42 +42 опасность
перегрева
1007.7 1006.9
00 12.06 штиль 0 20 км 9/3 600 м
[Cu med, cong Cs]
+29.0 +25.1 80 +42 +48 опасность
перегрева
1009.5 1008.7 +27.1
03 12.06 Ю 1 20 км 9/3 600 м
[Cu med, cong Cs]
+31.5 +25.7 71 +46 +60 опасность
перегрева
1008.7
06 12.06 штиль 0 20 км 9/3 600 м
[Cu med, cong Ac trans Cs]
+33.0 +28.0 75 +54 +62 опасность
перегрева
1006.8 1006.0
09 12.06 штиль 0 20 км 6/1 540 м
[Cu med, cong Ac trans Ci fib]
+34.5 +28.9 73 +58 +60 опасность
перегрева
1006.5 1005.7
12 12.06 Ю 1 20 км 6/3 540 м
[Cu med, cong Cs]
+29.5 +25.7 80 +44 +44 опасность
перегрева
1008.3 1007.5 +35.4
15 12.06 штиль 0 20 км 6/1 540 м
[Cu med, cong Cs]
+27.9 +24.6 82 +39 +39 очень
душно
1009.1 1008.3
18 12.06 З 2 18 км зарница 9/4 500 м
[Cb cap Cs]
+28.1 +25.2 84 +41 +41 опасность
перегрева
1007.8 1007.0
21 12.06 З 2 20 км 6/1 540 м
[Cu med, cong Cs]
+28.2 +24.4 80 +40 +40 очень
душно
1006.5 1005.7
00 13.06 ЮВ 4 20 км 5/1 540 м
[Cu med, cong Cs]
+31.5 +27.0 77 +49 +53 опасность
перегрева
1008.6 1007.8 +27.7
03 13.06 З 3 20 км 6/3 540 м
[Cu med, cong Cs]
+34.3 +29.1 74 +58 +69 опасность
перегрева
1008.0 1007.2
06 13.06 З 4 18 км 8/4 540 м
[Cu med, cong Ac trans]
+33.4 +29.2 79 +58 +62 опасность
перегрева
1006.8 1006.0
09 13.06 ЮЗ 1 18 км 8/3 540 м
[Cu med, cong Ac lent Cs]
+33.3 +27.9 73 +53 +55 опасность
перегрева
1006.6 1005.8
12 13.06 штиль 0 20 км 5/1 540 м
[Cu med, cong Cs]
+29.7 +27.8 90 +49 +49 опасность
перегрева
1008.2 1007.4 +35.9
15 13.06 З 1 20 км 5/1 540 м
[Cu med, cong Cs]
+27.9 +25.4 86 +41 +41 опасность
перегрева
1009.0 1008.2
18 13.06 ЮЗ 1 20 км 4/1 540 м
[Cu med, cong Ci fib]
+27.4 +25.6 90 +40 +40 очень
душно
1007.0 1006.2
21 13.06 З 1 20 км 4/1 540 м
[Cu med, cong Ci fib]
+27.1 +25.8 93 +40 +40 очень
душно
1006.4 1005.6
00 14.06 ЮЗ 2 20 км 5/1 540 м
[Cu med, cong Ci fib]
+31.5 +27.0 77 +49 +55 опасность
перегрева
1007.6 1006.8 +27.1
03 14.06 Ю 4 20 км 6/3 540 м
[Cu med, cong Ci fib]
+34.6 +27.2 66 +53 +62 опасность
перегрева
1007.0 1006.2
06 14.06 ЮЗ 4 18 км 8/3 500 м
[Cb calv Ac As]
+35.1 +27.5 65 +54 +58 опасность
перегрева
1005.8 1005.0
09 14.06 Ю 2 18 км 8/3 540 м
[Cu med, cong Ac trans Ci fib]
+32.2 +26.8 73 +50 +50 опасность
перегрева
1005.7 1004.9
12 14.06 ЮЗ 1 20 км 6/1 540 м
[Cu med, cong Ac trans Ci fib]
+30.0 +26.1 80 +45 +45 опасность
перегрева
1007.6 1006.8 +36.6
15 14.06 Ю 2 20 км 5/1 540 м
[Cu med, cong Ci fib]
+29.1 +25.8 82 +43 +43 опасность
перегрева
1008.5 1007.7
18 14.06 ЮЗ 1 20 км 8/1 540 м
[Cu med, cong Cs]
+28.0 +25.9 88 +42 +42 опасность
перегрева
1006.8 1006.0
21 14.06 Ю 1 20 км 6/1 540 м
[Cu med, cong Ac trans Ci fib]
+28.2 +26.1 88 +42 +42 опасность
перегрева
1006.1 1005.3
00 15.06 штиль 0 20 км 6/1 540 м
[Cu med, cong Ac trans Ci fib]
+31.0 +25.1 71 +45 +51 опасность
перегрева
1006.8 1006.0 +27.5
03 15.06 ЮЗ 2 18 км 9/3 540 м
[Cu med, cong Ac As]
+34.0 +27.7 70 +54 +60 опасность
перегрева
1007.0 1006.2
06 15.06 штиль 0 18 км 9/3 540 м
[Cu med, cong Ac As]
+34.0 +27.5 69 +53 +60 опасность
перегрева
1005.6 1004.8
09 15.06 штиль 0 18 км 8/3 540 м
[Cu med, cong Ac trans]
+33.0 +28.5 77 +55 +56 опасность
перегрева
1005.8 1005.0
12 15.06 ЮЗ 2 18 км 8/3 540 м
[Cu med, cong Ac lent Cs]
+29.4 +26.3 83 +45 +45 опасность
перегрева
1007.1 1006.3 +34.8
15 15.06 Ю 2 20 км 4/1 540 м
[Cu med, cong Ci fib]
+28.1 +24.9 83 +40 +40 очень
душно
1007.3 1006.5
18 15.06 Ю 1 20 км 4/1 540 м
[Cu med, cong Ci fib]
+28.0 +25.4 86 +41 +41 опасность
перегрева
1007.0 1006.2
21 15.06 штиль 0 22 км 3/1 540 м
[Cu med, cong Ci fib]
+27.3 +25.3 89 +40 +40 очень
душно
1007.7 1006.9
00 16.06 ЮЗ 1 18 км 6/1 540 м
[Cu med, cong Cs]
+31.1 +26.1 75 +47 +54 опасность
перегрева
1008.1 1007.3
03 16.06 Ю 1 18 км 8/1 540 м
[Cu med, cong Cs]
+33.7 +27.3 69 +52 +71 опасность
перегрева
1008.4 1007.6
06 16.06 ЮВ 4 16 км мгла {туман} 8/3 540 м
[Cu med, cong Cs]
+34.9 +30.5 78 +64 +70 опасность
перегрева
1007.2 1006.4
09 16.06 ЮЗ 1 16 км осадки на расстоянии {туман} 8/4 500 м
[Cb cap Cs]
+32.5 +28.7 80 +55 +56 опасность
перегрева
1007.6 1006.8
12 16.06 штиль 0 20 км {туман} 5/1 540 м
[Cu med, cong Ac trans Ci fib]
+29.6 +26.9 85 +46 +46 опасность
перегрева
1009.7 1008.9 +35.8
15 16.06 З 1 20 км 4/1 500 м
[Cb cap Ci fib]
+28.5 +26.2 87 +43 +43 опасность
перегрева
1010.7 1009.9
18 16.06 ЮЗ 1 20 км 8/1 540 м
[Cu med, cong Cs]
+27.5 +25.8 90 +41 +41 опасность
перегрева
1009.5 1008.7
21 16.06 штиль 0 20 км 6/1 540 м
[Cu med, cong Cs]
+26.2 +24.7 91 +37 +37 очень
душно
1008.9 1008.1
00 17.06 штиль 0 20 км 8/1 500 м
[Cu med, cong Cs]
+29.5 +26.4 83 +45 +52 опасность
перегрева
1010.5 1009.7 +26.0
03 17.06 В 2 20 км 5/3 540 м
[Cu med, cong Ci fib]
+32.2 +26.8 73 +50 +63 опасность
перегрева
1010.5 1009.7
06 17.06 В 2 25 км 4/3 540 м
[Cu med, cong Ci fib]
+33.0 +26.6 69 +50 +61 опасность
перегрева
1009.1 1008.3
09 17.06 СЗ 1 25 км 4/1 540 м
[Cu med, cong Ac trans Ci fib]
+33.0 +27.3 72 +52 +54 опасность
перегрева
1008.9 1008.1
12 17.06 СЗ 1 20 км зарница {гроза, ливн. осадки} 5/4 500 м
[Cb cap Ci fib]
+26.4 +24.5 89 +37 +37 очень
душно
1010.8 1010.0 +34.5 11
15 17.06 штиль 0 20 км {ливн. осадки} 5/4 500 м
[Cb cap Ci sp]
+25.5 +24.8 96 +36 +36 очень
душно
1011.8 1011.0 2
18 17.06 штиль 0 20 км {ливн. осадки} 3/1 540 м
[Cu med, cong Ci fib]
+25.5 +24.8 96 +36 +36 очень
душно
1010.2 1009.4 2

 

Местоположение метеостанции Инфанта (Филиппины): широта 14.75 долгота 121.65 высота над уровнем моря 7 м.

В архиве по умолчанию представлена погода в Инфанте за последнюю неделю. Архивные данные за месяц целиком и за предыдущие месяцы, начиная с января 2011 года, Вы можете получить, выбрав интересующий диапазон дат из раскрывающегося списка и нажав кнопку "Ввод!".


*Определитесь, кто Вы:
робот инопланетянин человек

Внимание! Время в таблицах - всемирное. Для получения местного времени необходимо прибавить поправку, которая равна 8 ч.

Смотрите также архив погоды в соседних городах и на ближайших метеорологических станциях:

Погода в Танае (Филиппины) (43 км)
Погода в Научном саду (Филиппины) (70 км)
Погода в Аэропорту Ninoy Aquino (Филиппины) (74 км)
Погода в Маниле (Филиппины) (75 км)
Погода в Тайябасе (Филиппины) (80 км)
Погода на Алабате (Филиппины) (84 км)
Погода в Сангли Пойнт (Филиппины) (84 км)
Погода на Амбулонге (Филиппины) (99 км)
Погода в Кабанатуане (Филиппины) (110 км)
Погода в Балер Радар (Филиппины) (111 км)

Пояснения к столбцам:

Ветер - указаны скорость ветра в м/с - средняя за 10 мин, порывы в срок и между сроками (в фигурных скобках) и направление, откуда дует ветер: С - северный, СВ - северо-восточный, В - восточный, ЮВ - юго-восточный, Ю - южный, ЮЗ - юго-западный, З - западный, СЗ - северо-западный.
Видимость - горизонтальная дальность видимости в метрах или километрах. При видимости от 1 до 10 км при отсутствии осадков обычно наблюдается дымка, при ухудшении видимости до 1 км и менее - туман. В сухую погоду видимость может ухудшаться дымом, пылью или мглою.
Явления - указаны атмосферные явления, наблюдавшиеся в срок или в последний час перед сроком; фигурными скобками обозначены явления, наблюдавшиеся между сроками (за 1-3 часа до срока); квадратными скобками обозначены град или гололедные отложения с указанием их диаметра в мм.
Облачность - указаны через наклонную черту общая и нижняя облачность в баллах и высота нижней границы облаков в метрах; квадратными скобками обозначены формы облаков: Ci - перистые, Cs - перисто-слоистые, Cc - перисто-кучевые, Ac - высококучевые, As - высокослоистые, Sc - слоисто-кучевые, Ns - слоисто-дождевые, Cu - кучевые, Cb - кучево-дождевые. Подробнее классификацию облаков см. в Атласе облаков (PDF).
T - Температура воздуха - температура, измеренная на высоте 2 м над землей.
Td - Температура точки росы - температура, при понижении до которой содержащийся в воздухе водяной пар достигнет насыщения.
f - Относительная влажность воздуха - влажноcть воздуха, измеренная на высоте 2 м над землей.
Te - Эффективная температура - температура, которую ощущает одетый по сезону человек в тени. Характеристика душности погоды. При расчете учитывается влияние влажности воздуха и скорости ветра на теплоощущения человека.
Tes - Эффективная температура на солнце - температура, которую ощущает человек, с поправкой на солнечный нагрев. Характеристика знойности погоды. Зависит от высоты солнца над горизонтом, облачности и скорости ветра. Ночью, в пасмурную погоду, а также при ветре 12 м/с и более поправка равна нулю.
P - Атмосферное давление - приведенное к уровню моря атмосферное давление.
Po - Атмосферное давление - измеренное на уровне метеостанции атмосферное давление.
Tmin - Минимальная температура - минимум температуры воздуха на высоте 2 м над землей.
Tmax - Максимальная температура - максимум температуры воздуха на высоте 2 м над землей.
R - Количество осадков - Количество выпавших осадков за период времени, мм. При наведении курсора мыши на число - период времени, за который выпало указанное количество осадков.
R24 - Количество осадков - Количество выпавших осадков за 24 часа, мм.
S - Снежный покров - Высота снежного покрова, см. При наведении курсора мыши на число - состояние снежного покрова и степень покрытия местности в баллах.